カタログに戻る

DELTA 1 DEB

運用中UNKNOWN
NORAD 7145·DEBRIS·🇺🇸 United States

打ち上げ Nov 6, 1973 から Vandenberg Space Force Base

Loading…

次のパス (今後24時間)

TLE

最新Source: Space-Track

元期: Sep 14, 2026, 09:28 UTC

1 07145U 73086DK  26257.39457973 -.00000024  00000-0  19896-3 0  9993
2 07145 101.9522  50.3279 0316168 276.7641 106.4461 11.81592459279345

AllMySatでDELTA 1 DEBをリアルタイム追跡

Download on the App Store